SES-19

Last updated on Thu Sep 10 2026 00:03:01 GMT+0000 (Coordinated Universal Time)

1 55971U 23038B 26252.55888152 .00000066 00000+0 00000+0 0 9992 2 55971 0.0443 293.5430 0001704 242.8190 238.5434 1.00272989 12936
UTC large
Height (km)
Speed (km/s)
/
Latitude / Longitude
Inclination (degrees)
Orbital Period (minutes)
Azimuth
Elevation
Range (km)
Doppler Factor

Next 0 passes for location: London (51.5072 / 0.1276)

No passes found over London.
SES-19